TimeCDT,TemperatureF,Dew PointF,Humidity,Sea Level PressureIn,VisibilityMPH,Wind Direction,Wind SpeedMPH,Gust SpeedMPH,PrecipitationIn,Events,Conditions,WindDirDegrees,DateUTC
12:55 AM,27.9,22.5,80,30.28,10.0,West,4.6,-,N/A,,Overcast,260,2012-10-27 05:55:00
1:55 AM,25.5,20.7,82,30.28,10.0,West,6.9,-,N/A,,Scattered Clouds,270,2012-10-27 06:55:00
2:55 AM,24.1,19.6,83,30.29,10.0,WNW,3.5,-,N/A,,Clear,290,2012-10-27 07:55:00
3:55 AM,19.6,16.9,89,30.29,10.0,West,5.8,-,N/A,,Clear,270,2012-10-27 08:55:00
4:55 AM,19.4,16.0,87,30.29,10.0,West,4.6,-,N/A,,Clear,280,2012-10-27 09:55:00
5:55 AM,18.5,15.6,89,30.30,10.0,West,5.8,-,N/A,,Overcast,260,2012-10-27 10:55:00
6:55 AM,21.9,18.7,87,30.30,10.0,WSW,3.5,-,N/A,,Overcast,250,2012-10-27 11:55:00
7:55 AM,24.3,20.1,84,30.32,10.0,West,5.8,-,N/A,,Overcast,260,2012-10-27 12:55:00
8:55 AM,24.1,20.3,85,30.32,10.0,Calm,Calm,-,N/A,,Overcast,0,2012-10-27 13:55:00
9:55 AM,27.9,21.9,78,30.34,10.0,NW,5.8,-,N/A,,Overcast,320,2012-10-27 14:55:00
10:55 AM,29.3,19.2,66,30.35,10.0,NNW,8.1,-,N/A,,Overcast,330,2012-10-27 15:55:00
11:55 AM,30.7,14.4,51,30.34,10.0,NNW,8.1,-,N/A,,Overcast,330,2012-10-27 16:55:00
12:55 PM,31.6,13.1,46,30.33,10.0,North,3.5,-,N/A,,Overcast,10,2012-10-27 17:55:00
1:55 PM,32.2,13.1,45,30.32,10.0,NNW,5.8,-,N/A,,Overcast,330,2012-10-27 18:55:00
2:55 PM,32.2,13.3,46,30.31,10.0,Calm,Calm,-,N/A,,Overcast,0,2012-10-27 19:55:00
3:55 PM,32.2,13.3,46,30.31,10.0,Calm,Calm,-,N/A,,Overcast,0,2012-10-27 20:55:00
4:55 PM,32.4,14.2,47,30.30,10.0,Calm,Calm,-,N/A,,Overcast,0,2012-10-27 21:55:00
5:55 PM,31.5,15.6,52,30.31,10.0,Calm,Calm,-,N/A,,Overcast,0,2012-10-27 22:55:00
6:55 PM,30.4,15.4,54,30.31,10.0,Calm,Calm,-,N/A,,Overcast,0,2012-10-27 23:55:00
7:55 PM,28.9,18.0,64,30.32,10.0,Calm,Calm,-,N/A,,Overcast,0,2012-10-28 00:55:00
8:55 PM,27.3,20.1,74,30.32,10.0,SW,4.6,-,N/A,,Overcast,220,2012-10-28 01:55:00
9:55 PM,25.2,21.2,85,30.33,10.0,WSW,3.5,-,N/A,,Overcast,240,2012-10-28 02:55:00
10:55 PM,24.6,21.0,86,30.34,10.0,Calm,Calm,-,N/A,,Mostly Cloudy,0,2012-10-28 03:55:00
11:55 PM,20.5,18.5,92,30.34,5.0,Calm,Calm,-,N/A,,Clear,0,2012-10-28 04:55:00